AAL3198 KDFW-KOKC

Flight info

Callsign AAL3198
Flight time 0h 40m
Altitude 28000
Route BLECO8 ZEMMA TSDEL3
Aircraft A319/M-SDE3FGHIRWY/LB1

Departure

Time 2026-05-08 18:23
Airport Dallas Fort Worth International Airport (KDFW)

Arrival

Time 2026-05-08 19:04
Airport OKC Will Rogers World Airport (KOKC)
Time Latitude Longitude Altitude Speed Heading
2026-05-08 17:56 32.90547 -97.03508 587 ft 0 kts 268°
2026-05-08 18:13 32.90548 -97.03479 587 ft 4 kts 269°
2026-05-08 18:13 32.90548 -97.03454 587 ft 4 kts 273°
2026-05-08 18:13 32.90543 -97.03423 587 ft 4 kts 294°
2026-05-08 18:13 32.90535 -97.03405 587 ft 0 kts 307°
2026-05-08 18:15 32.90537 -97.03407 587 ft 2 kts 319°
2026-05-08 18:16 32.90567 -97.03408 587 ft 7 kts
2026-05-08 18:16 32.90623 -97.03397 587 ft 9 kts 359°
2026-05-08 18:16 32.90667 -97.03378 587 ft 5 kts 95°
2026-05-08 18:16 32.90667 -97.03332 586 ft 6 kts 89°
2026-05-08 18:17 32.90698 -97.03310 585 ft 6 kts 356°
2026-05-08 18:17 32.90743 -97.03310 585 ft 7 kts
2026-05-08 18:17 32.90791 -97.03310 586 ft 7 kts 359°
2026-05-08 18:17 32.90840 -97.03310 586 ft 7 kts
2026-05-08 18:18 32.90893 -97.03309 585 ft 8 kts
2026-05-08 18:18 32.90963 -97.03309 583 ft 12 kts
2026-05-08 18:18 32.91046 -97.03273 580 ft 14 kts
2026-05-08 18:18 32.91145 -97.03274 580 ft 14 kts 359°
2026-05-08 18:19 32.91240 -97.03273 582 ft 13 kts
2026-05-08 18:19 32.91335 -97.03272 581 ft 14 kts 360°
2026-05-08 18:19 32.91444 -97.03272 582 ft 17 kts
2026-05-08 18:19 32.91486 -97.03185 576 ft 14 kts 91°
2026-05-08 18:20 32.91486 -97.03098 577 ft 0 kts 89°
2026-05-08 18:22 32.91486 -97.03096 577 ft 2 kts 89°
2026-05-08 18:22 32.91487 -97.03020 581 ft 11 kts 88°
2026-05-08 18:22 32.91427 -97.02989 578 ft 13 kts 181°
2026-05-08 18:23 32.91093 -97.02991 579 ft 86 kts 180°
2026-05-08 18:23 32.90264 -97.02995 580 ft 149 kts 180°
2026-05-08 18:23 32.89123 -97.02996 941 ft 168 kts 180°
2026-05-08 18:23 32.87957 -97.02956 1688 ft 168 kts 178°
2026-05-08 18:24 32.86789 -97.02904 2418 ft 171 kts 178°
2026-05-08 18:24 32.85530 -97.02853 2808 ft 193 kts 178°
2026-05-08 18:24 32.84143 -97.02438 3279 ft 221 kts 159°
2026-05-08 18:24 32.82635 -97.01676 4028 ft 249 kts 161°
2026-05-08 18:25 32.80994 -97.00869 5048 ft 260 kts 161°
2026-05-08 18:25 32.79310 -96.99980 6032 ft 270 kts 153°
2026-05-08 18:25 32.77955 -96.98380 6893 ft 284 kts 122°
2026-05-08 18:25 32.77172 -96.96195 7791 ft 290 kts 113°
2026-05-08 18:26 32.76622 -96.93862 8657 ft 298 kts 99°
2026-05-08 18:26 32.76568 -96.91341 9347 ft 313 kts 87°
2026-05-08 18:26 32.76796 -96.88741 10101 ft 322 kts 78°
2026-05-08 18:26 32.77591 -96.86165 10448 ft 345 kts 59°
2026-05-08 18:27 32.79120 -96.83882 10736 ft 363 kts 38°
2026-05-08 18:27 32.80491 -96.82730 11095 ft 366 kts 24°
2026-05-08 18:27 32.83701 -96.81481 12056 ft 365 kts
2026-05-08 18:27 32.86209 -96.80971 12834 ft 365 kts 359°
2026-05-08 18:28 32.88739 -96.80909 13609 ft 365 kts 354°
2026-05-08 18:28 32.91295 -96.80910 14327 ft 369 kts 354°
2026-05-08 18:28 32.93879 -96.80913 15013 ft 373 kts 354°
2026-05-08 18:28 32.96478 -96.80971 15682 ft 374 kts 349°
2026-05-08 18:29 32.99029 -96.81510 16364 ft 371 kts 338°
2026-05-08 18:29 33.01424 -96.82594 17030 ft 368 kts 327°
2026-05-08 18:29 33.03688 -96.84038 17686 ft 370 kts 326°
2026-05-08 18:29 33.05960 -96.85504 18343 ft 374 kts 326°
2026-05-08 18:30 33.08254 -96.86993 18940 ft 377 kts 326°
2026-05-08 18:30 33.10580 -96.88507 19551 ft 380 kts 326°
2026-05-08 18:30 33.12867 -96.89991 20145 ft 383 kts 326°
2026-05-08 18:30 33.15222 -96.91516 20740 ft 386 kts 326°
2026-05-08 18:31 33.17597 -96.93050 21339 ft 390 kts 326°
2026-05-08 18:31 33.19991 -96.94598 21921 ft 393 kts 325°
2026-05-08 18:31 33.22398 -96.96160 22474 ft 396 kts 325°
2026-05-08 18:31 33.24828 -96.97736 23032 ft 399 kts 325°
2026-05-08 18:32 33.27277 -96.99321 23557 ft 402 kts 325°
2026-05-08 18:32 33.29745 -97.00919 23994 ft 405 kts 325°
2026-05-08 18:32 33.32226 -97.02533 24428 ft 408 kts 325°
2026-05-08 18:32 33.34725 -97.04161 24850 ft 410 kts 324°
2026-05-08 18:33 33.37240 -97.05799 25271 ft 413 kts 324°
2026-05-08 18:33 33.39771 -97.07445 25676 ft 416 kts 324°
2026-05-08 18:33 33.42389 -97.08993 26083 ft 424 kts 331°
2026-05-08 18:33 33.45256 -97.10016 26491 ft 437 kts 342°
2026-05-08 18:34 33.48323 -97.10402 26903 ft 451 kts 353°
2026-05-08 18:34 33.51490 -97.10115 27305 ft 460 kts 360°
2026-05-08 18:34 33.54682 -97.09692 27697 ft 463 kts 359°
2026-05-08 18:34 33.57898 -97.09275 27934 ft 466 kts 359°
2026-05-08 18:35 33.61113 -97.08866 27976 ft 464 kts 359°
2026-05-08 18:35 33.64319 -97.08462 27977 ft 463 kts 359°
2026-05-08 18:35 33.67520 -97.08061 27976 ft 462 kts 359°
2026-05-08 18:35 33.70717 -97.07658 27973 ft 462 kts 359°
2026-05-08 18:36 33.73914 -97.07252 27979 ft 462 kts 359°
2026-05-08 18:36 33.77109 -97.06847 27967 ft 461 kts 359°
2026-05-08 18:36 33.80297 -97.06440 27952 ft 460 kts 359°
2026-05-08 18:36 33.83478 -97.06033 27951 ft 460 kts 359°
2026-05-08 18:37 33.86662 -97.05623 27948 ft 460 kts 359°
2026-05-08 18:37 33.88772 -97.05352 27947 ft 460 kts 359°
2026-05-08 18:37 33.91952 -97.04945 27943 ft 459 kts 359°
2026-05-08 18:37 33.95129 -97.04538 27940 ft 459 kts 359°
2026-05-08 18:38 33.98306 -97.04132 27940 ft 459 kts 359°
2026-05-08 18:38 34.01479 -97.03731 27966 ft 459 kts 359°
2026-05-08 18:38 34.04656 -97.03328 27965 ft 459 kts 359°
2026-05-08 18:38 34.07828 -97.02923 27965 ft 458 kts 359°
2026-05-08 18:39 34.10997 -97.02518 27961 ft 458 kts 359°
2026-05-08 18:39 34.14166 -97.02111 27958 ft 458 kts 359°
2026-05-08 18:39 34.17374 -97.01700 27955 ft 457 kts 359°
2026-05-08 18:39 34.20496 -97.01298 27954 ft 457 kts 359°
2026-05-08 18:40 34.23660 -97.00887 27952 ft 457 kts 359°
2026-05-08 18:40 34.26821 -97.00478 27947 ft 457 kts 359°
2026-05-08 18:40 34.29983 -97.00075 27971 ft 457 kts 360°
2026-05-08 18:40 34.33148 -96.99670 27490 ft 456 kts 360°
2026-05-08 18:41 34.36311 -96.99596 26359 ft 453 kts 348°
2026-05-08 18:41 34.39335 -97.00254 26093 ft 430 kts 339°
2026-05-08 18:41 34.42086 -97.01415 25876 ft 408 kts 330°
2026-05-08 18:41 34.44590 -97.02926 25403 ft 399 kts 327°
2026-05-08 18:42 34.47034 -97.04466 24872 ft 394 kts 326°
2026-05-08 18:42 34.49448 -97.06007 24348 ft 390 kts 326°
2026-05-08 18:42 34.51837 -97.07542 23842 ft 387 kts 326°
2026-05-08 18:42 34.54201 -97.09065 23354 ft 383 kts 327°
2026-05-08 18:43 34.56545 -97.10578 22813 ft 380 kts 326°
2026-05-08 18:43 34.58868 -97.12075 22273 ft 375 kts 326°
2026-05-08 18:43 34.61159 -97.13543 21450 ft 371 kts 326°
2026-05-08 18:43 34.63430 -97.14994 20632 ft 367 kts 326°
2026-05-08 18:44 34.65675 -97.16432 19831 ft 363 kts 326°
2026-05-08 18:44 34.67889 -97.17850 19267 ft 358 kts 326°
2026-05-08 18:44 34.70083 -97.19258 18785 ft 355 kts 326°
2026-05-08 18:44 34.72268 -97.20661 18303 ft 355 kts 326°
2026-05-08 18:45 34.74445 -97.22060 17767 ft 353 kts 326°
2026-05-08 18:45 34.76604 -97.23447 17301 ft 350 kts 326°
2026-05-08 18:45 34.78743 -97.24834 16855 ft 346 kts 326°
2026-05-08 18:45 34.80838 -97.26306 16179 ft 348 kts 324°
2026-05-08 18:46 34.82883 -97.27836 15789 ft 343 kts 323°
2026-05-08 18:46 34.84855 -97.29347 15607 ft 326 kts 323°
2026-05-08 18:46 34.86728 -97.30779 15434 ft 311 kts 323°
2026-05-08 18:46 34.88547 -97.32168 15179 ft 306 kts 323°
2026-05-08 18:47 34.90335 -97.33530 14904 ft 302 kts 323°
2026-05-08 18:47 34.92126 -97.34900 14497 ft 304 kts 323°
2026-05-08 18:47 34.93911 -97.36265 14098 ft 304 kts 323°
2026-05-08 18:47 34.95694 -97.37627 13763 ft 302 kts 324°
2026-05-08 18:48 34.97473 -97.38987 13424 ft 300 kts 324°
2026-05-08 18:48 34.99230 -97.40328 13056 ft 298 kts 324°
2026-05-08 18:48 35.00989 -97.41667 12659 ft 297 kts 324°
2026-05-08 18:48 35.02740 -97.43004 12269 ft 296 kts 324°
2026-05-08 18:49 35.04482 -97.44333 11907 ft 294 kts 324°
2026-05-08 18:49 35.06227 -97.45632 11525 ft 294 kts 329°
2026-05-08 18:49 35.08143 -97.46524 11154 ft 297 kts 343°
2026-05-08 18:49 35.10198 -97.46843 10776 ft 299 kts 354°
2026-05-08 18:50 35.12275 -97.46970 10411 ft 298 kts 354°
2026-05-08 18:50 35.14338 -97.47097 10042 ft 296 kts 354°
2026-05-08 18:50 35.16393 -97.47226 9698 ft 295 kts 354°
2026-05-08 18:50 35.18440 -97.47359 9284 ft 294 kts 353°
2026-05-08 18:51 35.20479 -97.47491 8882 ft 293 kts 354°
2026-05-08 18:51 35.22516 -97.47620 8431 ft 292 kts 353°
2026-05-08 18:51 35.24538 -97.47746 8039 ft 288 kts 354°
2026-05-08 18:51 35.26488 -97.47865 7915 ft 273 kts 353°
2026-05-08 18:52 35.28337 -97.47979 7749 ft 262 kts 353°
2026-05-08 18:52 35.30136 -97.48098 7493 ft 257 kts 353°
2026-05-08 18:52 35.31922 -97.48218 7147 ft 256 kts 353°
2026-05-08 18:52 35.33694 -97.48336 6838 ft 254 kts 353°
2026-05-08 18:53 35.35457 -97.48453 6570 ft 253 kts 353°
2026-05-08 18:53 35.37205 -97.48569 6262 ft 250 kts 353°
2026-05-08 18:53 35.38925 -97.48678 6028 ft 243 kts 354°
2026-05-08 18:53 35.40578 -97.48715 5995 ft 232 kts 355°
2026-05-08 18:54 35.42192 -97.48712 5998 ft 232 kts 355°
2026-05-08 18:54 35.43806 -97.48699 5997 ft 232 kts 356°
2026-05-08 18:54 35.45421 -97.48684 5999 ft 232 kts 356°
2026-05-08 18:54 35.47039 -97.48676 5868 ft 234 kts 355°
2026-05-08 18:55 35.50263 -97.48644 5372 ft 230 kts 356°
2026-05-08 18:55 35.51836 -97.48621 5136 ft 228 kts 356°
2026-05-08 18:55 35.53438 -97.48589 4883 ft 226 kts 355°
2026-05-08 18:56 35.55011 -97.48557 4653 ft 225 kts 356°
2026-05-08 18:56 35.56567 -97.48530 4482 ft 223 kts 355°
2026-05-08 18:56 35.58119 -97.48512 4309 ft 224 kts 356°
2026-05-08 18:56 35.59674 -97.48504 4125 ft 224 kts 356°
2026-05-08 18:57 35.61238 -97.48499 4021 ft 225 kts 355°
2026-05-08 18:57 35.62274 -97.48500 3970 ft 224 kts 356°
2026-05-08 18:57 35.64165 -97.49259 3971 ft 215 kts 313°
2026-05-08 18:57 35.64920 -97.50776 3983 ft 204 kts 277°
2026-05-08 18:58 35.64987 -97.52489 3989 ft 199 kts 264°
2026-05-08 18:58 35.64897 -97.54193 3970 ft 200 kts 258°
2026-05-08 18:58 35.64267 -97.55681 3971 ft 199 kts 223°
2026-05-08 18:58 35.63074 -97.56527 3972 ft 197 kts 205°
2026-05-08 18:59 35.61808 -97.57142 3814 ft 193 kts 203°
2026-05-08 18:59 35.60572 -97.57712 3669 ft 188 kts 202°
2026-05-08 18:59 35.59367 -97.58271 3567 ft 181 kts 202°
2026-05-08 18:59 35.58190 -97.58789 3492 ft 180 kts 197°
2026-05-08 19:00 35.56937 -97.58891 3490 ft 181 kts 184°
2026-05-08 19:00 35.55667 -97.58902 3493 ft 187 kts 184°
2026-05-08 19:00 35.54354 -97.58905 3530 ft 189 kts 184°
2026-05-08 19:00 35.53029 -97.58905 3492 ft 190 kts 182°
2026-05-08 19:01 35.51723 -97.58903 3403 ft 183 kts 184°
2026-05-08 19:01 35.50450 -97.58902 3198 ft 182 kts 182°
2026-05-08 19:01 35.49202 -97.58901 2968 ft 177 kts 180°
2026-05-08 19:01 35.48046 -97.58900 2766 ft 156 kts 182°
2026-05-08 19:02 35.47018 -97.58899 2578 ft 135 kts 182°
2026-05-08 19:02 35.46104 -97.58899 2422 ft 133 kts 183°
2026-05-08 19:02 35.45199 -97.58898 2249 ft 129 kts 181°
2026-05-08 19:02 35.44309 -97.58892 2108 ft 126 kts 183°
2026-05-08 19:03 35.43434 -97.58893 1983 ft 126 kts 184°
2026-05-08 19:03 35.42547 -97.58893 1752 ft 130 kts 180°
2026-05-08 19:03 35.41649 -97.58885 1570 ft 127 kts 183°
2026-05-08 19:03 35.40762 -97.58894 1375 ft 128 kts 182°
2026-05-08 19:04 35.39907 -97.58891 1301 ft 111 kts 182°
2026-05-08 19:04 35.39355 -97.58896 1295 ft 42 kts 180°
2026-05-08 19:04 35.39218 -97.58987 1295 ft 22 kts 268°
2026-05-08 19:04 35.39218 -97.59175 1295 ft 22 kts 267°
2026-05-08 19:05 35.39216 -97.59357 1297 ft 21 kts 270°
2026-05-08 19:05 35.39217 -97.59538 1297 ft 22 kts 270°
2026-05-08 19:05 35.39218 -97.59723 1298 ft 22 kts 270°
2026-05-08 19:05 35.39250 -97.59897 1298 ft 22 kts 306°
2026-05-08 19:06 35.39355 -97.60018 1298 ft 20 kts 319°
2026-05-08 19:06 35.39424 -97.60053 1296 ft 11 kts 35°
2026-05-08 19:06 35.39494 -97.60056 1294 ft 12 kts 317°
2026-05-08 19:06 35.39564 -97.60122 1293 ft 13 kts 352°
2026-05-08 19:07 35.39617 -97.60048 1295 ft 11 kts 65°
2026-05-08 19:07 35.39633 -97.59969 1298 ft 8 kts 87°
2026-05-08 19:07 35.39631 -97.59909 1300 ft 6 kts 105°
2026-05-08 19:07 35.39602 -97.59898 1300 ft 5 kts 179°
2026-05-08 19:08 35.39572 -97.59898 1299 ft 1 kts 181°
2026-05-08 19:08 35.39571 -97.59898 1299 ft 0 kts 181°